This demonstration page uses our WeatherBlox Daily Observations layout. Learn more.

Left ArrowRight Arrow

34.74481, -87.66753

Hourly Observations for June 22, 2018

Temp ( °F °C ) Dew Point ( °F °C ) Humidity (%) Winds ( mph kmh ) Pressure ( in mb ) Visibility ( mi km ) Precip ( " mm )
12:53 am 00:53 Mostly Cloudy with Rain 68 20 66 18.9 93 93 W 5 7 29.83 1010 10 16 0.06 1.52
1:53 am 01:53 Mostly Clear 69 20.6 67 19.4 93 93 SSW 10 17 29.80 1009 10 16 0.06 1.52
2:53 am 02:53 Clear 68 20 66 18.9 93 93 Calm 29.78 1009 10 16 0.00 0.00
3:53 am 03:53 Clear 68 20 66 18.9 93 93 S 5 7 29.79 1009 10 16 0.00 0.00
4:53 am 04:53 Clear 67 19.4 65 18.3 93 93 S 3 6 29.80 1009 10 16 0.00 0.00
5:53 am 05:53 Sunny 66 18.9 65 18.3 96 96 Calm 29.82 1010 10 16 0.00 0.00
6:08 am 06:08 Partly Cloudy 67 19.4 65 18.3 93 93 S 3 6 29.83 1010 10 16 0.00 0.00
6:24 am 06:24 Mostly Cloudy 68 20 66 18.9 93 93 S 5 7 29.83 1010 10 16 0.00 0.00
6:53 am 06:53 Cloudy 69 20.6 67 19.4 93 93 S 6 9 29.82 1010 10 16 0.00 0.00
7:07 am 07:07 Cloudy 69 20.6 68 20 96 96 S 6 9 29.83 1010 10 16 0.00 0.00
7:33 am 07:33 Cloudy 71 21.7 69 20.6 94 94 WSW 7 11 29.83 1010 10 16 0.00 0.00
7:53 am 07:53 Cloudy 71 21.7 69 20.6 94 94 SW 7 11 29.82 1010 10 16 0.00 0.00
8:53 am 08:53 Mostly Cloudy 76 24.4 71 21.7 85 85 SW 9 15 29.82 1010 10 16 0.00 0.00
9:14 am 09:14 Partly Cloudy 78 25.6 72 22.2 82 82 SW 9 15 29.83 1010 10 16 0.00 0.00
9:53 am 09:53 Sunny 81 27.2 70 21.1 69 69 SW 12 19 29.80 1009 10 16 0.00 0.00
10:53 am 10:53 Mostly Sunny 84 28.9 73 22.8 70 70 SW 15 24 29.80 1009 10 16 0.00 0.00
11:09 am 11:09 Mostly Cloudy 82 27.8 73 22.8 74 74 WSW 20 31 29.83 1010 10 16 0.00 0.00
11:18 am 11:18 Mostly Cloudy 83 28.3 74 23.3 74 74 WSW 14 22 29.83 1010 10 16 0.00 0.00
11:35 am 11:35 Mostly Cloudy 82 27.8 74 23.3 77 77 WSW 22 35 29.83 1010 9 14 0.00 0.00
11:45 am 11:45 Mostly Cloudy with Strong Thunderstorms 79 26.1 74 23.3 85 85 WSW 10 17 29.83 1010 5 8 0.06 1.52
11:53 am 11:53 Cloudy with Thunderstorms 78 25.6 75 23.9 90 90 VRB 6 9 29.81 1009 8 13 0.06 1.52
12:16 pm 12:16 Mostly Cloudy with Nearby Thunderstorms 79 26.1 74 23.3 85 85 SW 15 24 29.80 1009 10 16 0.01 0.25
12:24 pm 12:24 Partly Cloudy 81 27.2 75 23.9 82 82 SW 14 22 29.80 1009 10 16 0.01 0.25
12:53 pm 12:53 Partly Cloudy 84 28.9 74 23.3 72 72 WSW 21 33 29.77 1008 10 16 0.01 0.25
1:14 pm 13:14 Partly Cloudy with Nearby Thunderstorms 85 29.4 72 22.2 65 65 SW 22 35 29.77 1008 10 16 0.00 0.00
1:29 pm 13:29 Mostly Cloudy 84 28.9 72 22.2 67 67 SW 25 41 29.80 1009 10 16 0.00 0.00
1:53 pm 13:53 Mostly Cloudy 83 28.3 70 21.1 65 65 WSW 25 41 29.78 1009 10 16 0.00 0.00
2:53 pm 14:53 Mostly Cloudy 83 28.3 71 21.7 67 67 WSW 18 30 29.75 1008 10 16 0.00 0.00
3:53 pm 15:53 Partly Cloudy 83 28.3 71 21.7 67 67 WSW 20 31 29.75 1008 10 16 0.00 0.00
4:01 pm 16:01 Partly Cloudy with Nearby Thunderstorms 82 27.8 71 21.7 69 69 WSW 14 22 29.77 1008 10 16 0.00 0.00
4:29 pm 16:29 Mostly Cloudy with Thunderstorms 82 27.8 71 21.7 69 69 W 13 20 29.77 1008 10 16 0.00 0.00
4:53 pm 16:53 Cloudy with Nearby Thunderstorms 76 24.4 69 20.6 79 79 NW 13 20 29.77 1008 10 16 0.00 0.00
5:01 pm 17:01 Cloudy with Thunderstorms 73 22.8 68 20 84 84 NW 18 30 29.80 1009 5 8 0.07 1.78
5:04 pm 17:04 Cloudy with Strong Thunderstorms 72 22.2 68 20 87 87 NW 14 22 29.77 1008 2 3 0.22 5.59
5:13 pm 17:13 Cloudy with Thunderstorms 72 22.2 67 19.4 84 84 WNW 14 22 29.77 1008 4 6 0.26 6.60
5:33 pm 17:33 Partly Cloudy with Nearby Thunderstorms 75 23.9 70 21.1 84 84 NW 8 13 29.77 1008 10 16 0.32 8.13
5:40 pm 17:40 Partly Cloudy 75 23.9 70 21.1 84 84 NW 6 9 29.77 1008 10 16 0.32 8.13
5:53 pm 17:53 Mostly Sunny 76 24.4 72 22.2 88 88 WNW 3 6 29.74 1007 10 16 0.32 8.13
6:53 pm 18:53 Cloudy with Nearby Thunderstorms 75 23.9 72 22.2 90 90 NW 9 15 29.76 1008 3 4 0.15 3.81
7:00 pm 19:00 Cloudy with Nearby Thunderstorms 74 23.3 72 22.2 94 94 WNW 8 13 29.77 1008 3 5 0.02 0.51
7:11 pm 19:11 Cloudy with Thunderstorms 74 23.3 72 22.2 94 94 W 7 11 29.77 1008 10 16 0.02 0.51
7:27 pm 19:27 Mostly Cloudy with Nearby Thunderstorms 74 23.3 71 21.7 91 91 WSW 5 7 29.77 1008 10 16 0.02 0.51
7:42 pm 19:42 Mostly Cloudy 74 23.3 71 21.7 91 91 W 5 7 29.77 1008 10 16 0.02 0.51
7:53 pm 19:53 Mostly Cloudy 75 23.9 72 22.2 90 90 Calm 29.76 1008 10 16 0.02 0.51
8:53 pm 20:53 Mostly Cloudy 73 22.8 71 21.7 94 94 S 3 6 29.78 1009 10 16 0.00 0.00
9:53 pm 21:53 Clear 72 22.2 71 21.7 97 97 SSE 6 9 29.80 1009 10 16 0.00 0.00
10:53 pm 22:53 Clear 72 22.2 70 21.1 94 94 Calm 29.80 1009 10 16 0.00 0.00
11:53 pm 23:53 Clear 71 21.7 69 20.6 94 94 Calm 29.82 1010 9 14 0.00 0.00

Powered by AerisWeather